WMT164 EGGW-LIMC

Flight info

Callsign WMT164
Flight time 1h 36m
Altitude 37000
Route MATCH Q295 BRAIN P44 DAGGA M85 ITVIP L10 DVR UL9 KONAN DCT KOK DCT CIV DCT SUTAL DCT GTQ DCT OBORN DCT DEVDI/N0439F310 DCT BASGO Z424 RIXUV
Aircraft A320/M-SDE1E2E3FGIJ1J4RWXY/LB1

Departure

Time 2026-05-01 10:52
Airport London Luton Airport (EGGW)

Arrival

Time 2026-05-01 12:29
Airport Milan Malpensa International Airport (LIMC)
Time Latitude Longitude Altitude Speed Heading
2026-05-01 10:46 51.88030 -0.37269 508 ft 0 kts 72°
2026-05-01 10:47 51.88032 -0.37260 508 ft 2 kts 72°
2026-05-01 10:48 51.88043 -0.37202 508 ft 9 kts 79°
2026-05-01 10:48 51.88003 -0.37122 508 ft 11 kts 160°
2026-05-01 10:48 51.87925 -0.37084 509 ft 13 kts 160°
2026-05-01 10:48 51.87841 -0.37038 512 ft 12 kts 161°
2026-05-01 10:49 51.87770 -0.36999 517 ft 10 kts 161°
2026-05-01 10:49 51.87716 -0.36970 521 ft 6 kts 161°
2026-05-01 10:49 51.87676 -0.36949 524 ft 8 kts 161°
2026-05-01 10:49 51.87629 -0.36994 522 ft 12 kts 241°
2026-05-01 10:50 51.87601 -0.37134 522 ft 14 kts 254°
2026-05-01 10:50 51.87576 -0.37297 522 ft 16 kts 265°
2026-05-01 10:50 51.87548 -0.37462 521 ft 17 kts 216°
2026-05-01 10:50 51.87488 -0.37622 523 ft 17 kts 254°
2026-05-01 10:51 51.87454 -0.37820 522 ft 19 kts 255°
2026-05-01 10:51 51.87406 -0.38023 524 ft 20 kts 223°
2026-05-01 10:51 51.87278 -0.38109 523 ft 20 kts 162°
2026-05-01 10:51 51.87274 -0.37943 524 ft 18 kts 72°
2026-05-01 10:52 51.87368 -0.37386 522 ft 94 kts 74°
2026-05-01 10:52 51.87608 -0.35988 527 ft 160 kts 76°
2026-05-01 10:52 51.87928 -0.34196 1234 ft 168 kts 77°
2026-05-01 10:52 51.88256 -0.32301 1859 ft 186 kts 81°
2026-05-01 10:53 51.88613 -0.30162 2092 ft 208 kts 79°
2026-05-01 10:53 51.89018 -0.27755 2434 ft 234 kts 78°
2026-05-01 10:53 51.89458 -0.25082 2862 ft 255 kts 82°
2026-05-01 10:53 51.89316 -0.22252 3582 ft 256 kts 117°
2026-05-01 10:54 51.88170 -0.20114 4421 ft 255 kts 152°
2026-05-01 10:54 51.86512 -0.18783 5361 ft 257 kts 158°
2026-05-01 10:54 51.84865 -0.17623 6266 ft 260 kts 159°
2026-05-01 10:54 51.83183 -0.16472 7119 ft 264 kts 159°
2026-05-01 10:55 51.81480 -0.15297 7996 ft 266 kts 158°
2026-05-01 10:55 51.79775 -0.14101 8894 ft 268 kts 158°
2026-05-01 10:55 51.78063 -0.12884 9756 ft 270 kts 157°
2026-05-01 10:55 51.76458 -0.11358 10505 ft 277 kts 138°
2026-05-01 10:56 51.75438 -0.08696 11206 ft 288 kts 108°
2026-05-01 10:56 51.75331 -0.05395 11700 ft 308 kts 89°
2026-05-01 10:56 51.75573 -0.01821 11880 ft 332 kts 86°
2026-05-01 10:56 51.75899 0.01963 12222 ft 347 kts 85°
2026-05-01 10:57 51.76263 0.05843 12850 ft 352 kts 85°
2026-05-01 10:57 51.76635 0.09768 13524 ft 356 kts 85°
2026-05-01 10:57 51.76997 0.13746 14175 ft 359 kts 86°
2026-05-01 10:57 51.77341 0.17755 14767 ft 363 kts 86°
2026-05-01 10:58 51.77954 0.25258 15847 ft 368 kts 86°
2026-05-01 10:58 51.78283 0.29373 16422 ft 371 kts 87°
2026-05-01 10:58 51.78612 0.33495 16989 ft 375 kts 87°
2026-05-01 10:59 51.78947 0.37685 17564 ft 378 kts 87°
2026-05-01 10:59 51.79282 0.41910 18144 ft 381 kts 87°
2026-05-01 10:59 51.79617 0.46167 18682 ft 384 kts 87°
2026-05-01 10:59 51.79953 0.50461 19187 ft 387 kts 87°
2026-05-01 11:00 51.80293 0.54785 19711 ft 389 kts 87°
2026-05-01 11:00 51.80632 0.59137 20250 ft 392 kts 88°
2026-05-01 11:00 51.80969 0.63461 20750 ft 394 kts 88°
2026-05-01 11:00 51.81277 0.67870 21238 ft 395 kts 93°
2026-05-01 11:01 51.80978 0.72221 21706 ft 387 kts 110°
2026-05-01 11:01 51.79927 0.76175 22158 ft 382 kts 126°
2026-05-01 11:01 51.78278 0.79493 22625 ft 379 kts 140°
2026-05-01 11:01 51.76169 0.82000 23086 ft 377 kts 154°
2026-05-01 11:02 51.73739 0.83565 23548 ft 377 kts 164°
2026-05-01 11:02 51.71218 0.84807 23976 ft 380 kts 164°
2026-05-01 11:02 51.68682 0.86046 24371 ft 382 kts 164°
2026-05-01 11:02 51.66161 0.87269 24758 ft 384 kts 164°
2026-05-01 11:03 51.63562 0.88528 25155 ft 386 kts 164°
2026-05-01 11:03 51.61014 0.89760 25524 ft 388 kts 164°
2026-05-01 11:03 51.58419 0.91019 25905 ft 391 kts 164°
2026-05-01 11:03 51.55809 0.92286 26262 ft 393 kts 164°
2026-05-01 11:04 51.53185 0.93558 26608 ft 395 kts 164°
2026-05-01 11:04 51.50543 0.94838 26961 ft 398 kts 164°
2026-05-01 11:04 51.47887 0.96126 27310 ft 400 kts 163°
2026-05-01 11:04 51.45206 0.97419 27608 ft 404 kts 164°
2026-05-01 11:05 51.42505 0.98716 27959 ft 407 kts 164°
2026-05-01 11:05 51.39788 1.00018 28322 ft 409 kts 164°
2026-05-01 11:05 51.37053 1.01328 28669 ft 411 kts 164°
2026-05-01 11:05 51.34344 1.02631 29017 ft 413 kts 163°
2026-05-01 11:06 51.31669 1.04344 29352 ft 417 kts 154°
2026-05-01 11:06 51.29205 1.06829 29678 ft 422 kts 144°
2026-05-01 11:06 51.27048 1.10032 30030 ft 426 kts 134°
2026-05-01 11:07 51.23665 1.17830 30905 ft 427 kts 126°
2026-05-01 11:07 51.22049 1.21803 31327 ft 426 kts 126°
2026-05-01 11:07 51.20451 1.25704 31752 ft 425 kts 126°
2026-05-01 11:07 51.18834 1.29639 32187 ft 424 kts 126°
2026-05-01 11:08 51.17400 1.33751 32621 ft 426 kts 117°
2026-05-01 11:08 51.16418 1.38217 33052 ft 430 kts 107°
2026-05-01 11:08 51.15706 1.47716 33887 ft 433 kts 98°
2026-05-01 11:09 51.15484 1.52494 34303 ft 432 kts 98°
2026-05-01 11:09 51.15256 1.57262 34655 ft 431 kts 98°
2026-05-01 11:09 51.15021 1.62020 34983 ft 431 kts 98°
2026-05-01 11:10 51.14543 1.71462 35605 ft 430 kts 98°
2026-05-01 11:10 51.14302 1.76214 35910 ft 430 kts 98°
2026-05-01 11:10 51.14060 1.80956 36209 ft 430 kts 98°
2026-05-01 11:10 51.13819 1.85702 36504 ft 430 kts 98°
2026-05-01 11:11 51.13579 1.90447 36763 ft 430 kts 97°
2026-05-01 11:11 51.13417 1.93582 36959 ft 429 kts 97°
2026-05-01 11:11 51.13179 1.98143 37175 ft 429 kts 97°
2026-05-01 11:11 51.12929 2.02897 37227 ft 433 kts 98°
2026-05-01 11:12 51.12417 2.12443 37227 ft 437 kts 98°
2026-05-01 11:12 51.11899 2.22077 37229 ft 437 kts 98°
2026-05-01 11:13 51.11368 2.31715 37234 ft 437 kts 98°
2026-05-01 11:13 51.10838 2.41347 37228 ft 437 kts 98°
2026-05-01 11:14 51.10303 2.50904 37231 ft 436 kts 98°
2026-05-01 11:14 51.09662 2.60491 37234 ft 434 kts 104°
2026-05-01 11:15 51.07585 2.69381 37233 ft 427 kts 123°
2026-05-01 11:15 51.04267 2.77179 37234 ft 426 kts 127°
2026-05-01 11:16 51.00903 2.84932 37231 ft 427 kts 126°
2026-05-01 11:16 50.97557 2.92658 37227 ft 428 kts 126°
2026-05-01 11:17 50.94176 3.00432 37232 ft 428 kts 126°
2026-05-01 11:17 50.90779 3.08193 37239 ft 429 kts 127°
2026-05-01 11:18 50.87373 3.15943 37237 ft 429 kts 127°
2026-05-01 11:18 50.83985 3.23629 37242 ft 429 kts 127°
2026-05-01 11:19 50.80572 3.31369 37229 ft 429 kts 126°
2026-05-01 11:19 50.77146 3.39103 37239 ft 430 kts 127°
2026-05-01 11:20 50.73707 3.46828 37247 ft 430 kts 126°
2026-05-01 11:20 50.70269 3.54552 37252 ft 430 kts 126°
2026-05-01 11:21 50.66848 3.62230 37259 ft 430 kts 127°
2026-05-01 11:21 50.63394 3.69937 37269 ft 431 kts 127°
2026-05-01 11:22 50.59929 3.77641 37259 ft 431 kts 126°
2026-05-01 11:22 50.56463 3.85350 37263 ft 432 kts 126°
2026-05-01 11:23 50.53157 3.93242 37276 ft 432 kts 123°
2026-05-01 11:23 50.49958 4.01167 37269 ft 432 kts 123°
2026-05-01 11:24 50.46708 4.09110 37280 ft 433 kts 124°
2026-05-01 11:25 50.41768 4.20962 37291 ft 432 kts 124°
2026-05-01 11:25 50.36819 4.32706 37286 ft 432 kts 124°
2026-05-01 11:26 50.31861 4.44492 37293 ft 432 kts 124°
2026-05-01 11:27 50.28556 4.52340 37297 ft 432 kts 124°
2026-05-01 11:27 50.25251 4.60168 37283 ft 431 kts 125°
2026-05-01 11:28 50.21934 4.67976 37282 ft 431 kts 125°
2026-05-01 11:28 50.18626 4.75716 37292 ft 432 kts 125°
2026-05-01 11:29 50.13623 4.87400 37283 ft 432 kts 125°
2026-05-01 11:30 50.08617 4.99060 37300 ft 432 kts 125°
2026-05-01 11:30 50.05272 5.06823 37293 ft 432 kts 125°
2026-05-01 11:31 50.01946 5.14517 37310 ft 431 kts 125°
2026-05-01 11:31 49.98598 5.22253 37286 ft 432 kts 125°
2026-05-01 11:32 49.95234 5.29984 37300 ft 432 kts 124°
2026-05-01 11:32 49.91868 5.37692 37303 ft 431 kts 125°
2026-05-01 11:33 49.88488 5.45396 37299 ft 432 kts 125°
2026-05-01 11:33 49.85131 5.53051 37291 ft 433 kts 125°
2026-05-01 11:34 49.81737 5.60775 37295 ft 434 kts 125°
2026-05-01 11:34 49.78334 5.68486 37308 ft 434 kts 126°
2026-05-01 11:35 49.74921 5.76183 37323 ft 434 kts 126°
2026-05-01 11:35 49.71510 5.83866 37311 ft 433 kts 126°
2026-05-01 11:36 49.68117 5.91488 37297 ft 434 kts 125°
2026-05-01 11:36 49.64681 5.99178 37285 ft 436 kts 126°
2026-05-01 11:37 49.61236 6.06878 37283 ft 437 kts 125°
2026-05-01 11:37 49.57769 6.14595 37306 ft 438 kts 126°
2026-05-01 11:38 49.54301 6.22289 37323 ft 437 kts 126°
2026-05-01 11:38 49.50856 6.29917 37322 ft 437 kts 125°
2026-05-01 11:39 49.47051 6.37173 37296 ft 436 kts 138°
2026-05-01 11:39 49.42033 6.42327 37291 ft 436 kts 156°
2026-05-01 11:40 49.36482 6.46083 37293 ft 437 kts 156°
2026-05-01 11:40 49.30925 6.49865 37318 ft 437 kts 156°
2026-05-01 11:41 49.25403 6.53622 37317 ft 437 kts 156°
2026-05-01 11:41 49.19836 6.57378 37325 ft 438 kts 156°
2026-05-01 11:42 49.14262 6.61130 37333 ft 437 kts 156°
2026-05-01 11:42 49.08705 6.64875 37310 ft 437 kts 156°
2026-05-01 11:43 49.03176 6.68588 37310 ft 438 kts 156°
2026-05-01 11:43 48.97659 6.72531 37319 ft 438 kts 149°
2026-05-01 11:44 48.89873 6.79813 37304 ft 438 kts 149°
2026-05-01 11:44 48.84673 6.84673 37329 ft 438 kts 149°
2026-05-01 11:45 48.79520 6.89468 37331 ft 437 kts 149°
2026-05-01 11:45 48.74335 6.94269 37328 ft 436 kts 149°
2026-05-01 11:46 48.69154 6.99059 37302 ft 437 kts 149°
2026-05-01 11:46 48.63953 7.03859 37285 ft 439 kts 149°
2026-05-01 11:47 48.58760 7.08642 37290 ft 441 kts 149°
2026-05-01 11:47 48.53515 7.13457 37296 ft 442 kts 149°
2026-05-01 11:48 48.48253 7.18270 37302 ft 442 kts 149°
2026-05-01 11:48 48.42622 7.21912 37296 ft 442 kts 162°
2026-05-01 11:49 48.36775 7.24741 37313 ft 441 kts 162°
2026-05-01 11:49 48.30963 7.27536 37323 ft 441 kts 162°
2026-05-01 11:50 48.25115 7.30356 37309 ft 441 kts 162°
2026-05-01 11:50 48.19261 7.33181 37304 ft 442 kts 162°
2026-05-01 11:51 48.13394 7.35997 37301 ft 443 kts 162°
2026-05-01 11:51 48.07556 7.38787 37303 ft 444 kts 162°
2026-05-01 11:52 48.01671 7.41590 37319 ft 444 kts 162°
2026-05-01 11:52 47.95785 7.44398 37322 ft 444 kts 162°
2026-05-01 11:53 47.89900 7.47194 37323 ft 444 kts 162°
2026-05-01 11:53 47.84060 7.49965 37324 ft 444 kts 162°
2026-05-01 11:54 47.78176 7.52745 37320 ft 444 kts 162°
2026-05-01 11:54 47.72346 7.55762 37320 ft 444 kts 156°
2026-05-01 11:55 47.66688 7.59452 37312 ft 444 kts 156°
2026-05-01 11:55 47.61471 7.62832 37291 ft 446 kts 156°
2026-05-01 11:56 47.55773 7.66509 37290 ft 447 kts 156°
2026-05-01 11:56 47.50060 7.70188 37322 ft 447 kts 156°
2026-05-01 11:57 47.44363 7.73860 37322 ft 447 kts 156°
2026-05-01 11:57 47.38693 7.77497 37302 ft 447 kts 156°
2026-05-01 11:58 47.32985 7.81141 37315 ft 447 kts 156°
2026-05-01 11:59 47.24414 7.86594 37294 ft 448 kts 157°
2026-05-01 11:59 47.18696 7.90231 37299 ft 448 kts 156°
2026-05-01 12:00 47.10160 7.95650 37312 ft 447 kts 156°
2026-05-01 12:01 47.01577 8.01070 37289 ft 448 kts 157°
2026-05-01 12:01 46.95858 8.04676 37307 ft 448 kts 157°
2026-05-01 12:02 46.90176 8.08247 37316 ft 447 kts 157°
2026-05-01 12:02 46.84467 8.11828 37319 ft 446 kts 157°
2026-05-01 12:03 46.78770 8.15403 37333 ft 445 kts 156°
2026-05-01 12:03 46.73071 8.18955 37297 ft 445 kts 157°
2026-05-01 12:04 46.67364 8.22500 37287 ft 447 kts 157°
2026-05-01 12:04 46.61684 8.26026 37304 ft 446 kts 157°
2026-05-01 12:04 46.58828 8.27798 37096 ft 447 kts 157°
2026-05-01 12:05 46.55928 8.29593 35979 ft 459 kts 156°
2026-05-01 12:05 46.49984 8.33264 33838 ft 466 kts 156°
2026-05-01 12:05 46.46991 8.35114 32453 ft 468 kts 156°
2026-05-01 12:06 46.44012 8.36955 31275 ft 465 kts 156°
2026-05-01 12:06 46.41086 8.38759 30193 ft 460 kts 156°
2026-05-01 12:06 46.38157 8.40561 29007 ft 454 kts 156°
2026-05-01 12:06 46.35280 8.42328 27903 ft 447 kts 156°
2026-05-01 12:07 46.32441 8.44067 26836 ft 440 kts 155°
2026-05-01 12:07 46.29632 8.45782 25748 ft 435 kts 156°
2026-05-01 12:07 46.26782 8.47119 24749 ft 430 kts 167°
2026-05-01 12:07 46.23837 8.47715 23768 ft 425 kts 173°
2026-05-01 12:08 46.20910 8.48134 22829 ft 417 kts 173°
2026-05-01 12:08 46.18123 8.48531 22430 ft 398 kts 173°
2026-05-01 12:08 46.15393 8.48917 21962 ft 381 kts 173°
2026-05-01 12:08 46.12843 8.49277 21515 ft 366 kts 172°
2026-05-01 12:09 46.10395 8.49937 21082 ft 353 kts 161°
2026-05-01 12:09 46.08083 8.51104 20644 ft 353 kts 156°
2026-05-01 12:09 46.05788 8.52358 20198 ft 351 kts 157°
2026-05-01 12:09 46.03516 8.53583 19744 ft 349 kts 157°
2026-05-01 12:10 46.01250 8.54797 19294 ft 345 kts 157°
2026-05-01 12:10 45.96791 8.57183 18357 ft 339 kts 156°
2026-05-01 12:10 45.94602 8.58359 17855 ft 331 kts 157°
2026-05-01 12:11 45.90432 8.60676 17240 ft 321 kts 150°
2026-05-01 12:11 45.88549 8.62359 16976 ft 317 kts 139°
2026-05-01 12:11 45.86847 8.64346 16723 ft 316 kts 139°
2026-05-01 12:12 45.85140 8.66329 16469 ft 314 kts 139°
2026-05-01 12:12 45.83448 8.68288 16073 ft 312 kts 139°
2026-05-01 12:12 45.81761 8.70238 15456 ft 309 kts 138°
2026-05-01 12:12 45.80095 8.72163 14859 ft 306 kts 139°
2026-05-01 12:13 45.78443 8.74071 14276 ft 304 kts 139°
2026-05-01 12:13 45.76804 8.75950 13647 ft 301 kts 142°
2026-05-01 12:13 45.75035 8.77475 13018 ft 300 kts 150°
2026-05-01 12:13 45.73200 8.78881 12421 ft 297 kts 150°
2026-05-01 12:14 45.71386 8.80276 11831 ft 295 kts 150°
2026-05-01 12:14 45.69591 8.81659 11254 ft 292 kts 150°
2026-05-01 12:14 45.67809 8.83030 10692 ft 289 kts 150°
2026-05-01 12:14 45.66595 8.83967 10321 ft 287 kts 150°
2026-05-01 12:15 45.64878 8.85288 10077 ft 272 kts 151°
2026-05-01 12:15 45.63240 8.86544 9679 ft 264 kts 150°
2026-05-01 12:15 45.62812 8.86872 9563 ft 263 kts 151°
2026-05-01 12:15 45.61523 8.87665 9165 ft 262 kts 161°
2026-05-01 12:16 45.59747 8.88227 8667 ft 261 kts 168°
2026-05-01 12:16 45.57972 8.88708 8157 ft 260 kts 168°
2026-05-01 12:16 45.56202 8.89190 7674 ft 259 kts 167°
2026-05-01 12:16 45.54434 8.89670 7199 ft 257 kts 168°
2026-05-01 12:17 45.52682 8.90152 6738 ft 256 kts 168°
2026-05-01 12:17 45.50935 8.90632 6297 ft 256 kts 168°
2026-05-01 12:17 45.49198 8.91108 6100 ft 251 kts 168°
2026-05-01 12:17 45.47511 8.91568 5955 ft 244 kts 168°
2026-05-01 12:18 45.45850 8.92021 5733 ft 241 kts 169°
2026-05-01 12:18 45.44250 8.92454 5604 ft 233 kts 168°
2026-05-01 12:18 45.42684 8.92878 5469 ft 227 kts 168°
2026-05-01 12:18 45.41100 8.93309 4945 ft 237 kts 168°
2026-05-01 12:19 45.39458 8.93757 4593 ft 241 kts 168°
2026-05-01 12:19 45.37823 8.94202 4377 ft 238 kts 166°
2026-05-01 12:19 45.36206 8.94637 4162 ft 235 kts 167°
2026-05-01 12:19 45.34614 8.95065 4028 ft 233 kts 167°
2026-05-01 12:20 45.33017 8.95398 3976 ft 232 kts 179°
2026-05-01 12:20 45.31513 8.94885 3972 ft 221 kts 209°
2026-05-01 12:20 45.30434 8.93387 3977 ft 220 kts 242°
2026-05-01 12:20 45.29997 8.91317 3982 ft 220 kts 260°
2026-05-01 12:21 45.29992 8.89187 3970 ft 215 kts 285°
2026-05-01 12:21 45.30462 8.87197 3816 ft 209 kts 293°
2026-05-01 12:21 45.31236 8.85525 3686 ft 200 kts 318°
2026-05-01 12:21 45.32274 8.84245 3558 ft 196 kts 322°
2026-05-01 12:22 45.33331 8.83054 3391 ft 193 kts 324°
2026-05-01 12:22 45.34379 8.81878 3152 ft 192 kts 324°
2026-05-01 12:22 45.35510 8.80926 2915 ft 188 kts 347°
2026-05-01 12:22 45.36768 8.80556 2676 ft 187 kts 351°
2026-05-01 12:23 45.38047 8.80212 2547 ft 187 kts 351°
2026-05-01 12:23 45.39323 8.79865 2475 ft 187 kts 352°
2026-05-01 12:23 45.40595 8.79517 2460 ft 187 kts 351°
2026-05-01 12:23 45.41880 8.79166 2471 ft 188 kts 352°
2026-05-01 12:24 45.43163 8.78815 2469 ft 188 kts 352°
2026-05-01 12:24 45.44446 8.78463 2504 ft 189 kts 349°
2026-05-01 12:24 45.45736 8.78109 2506 ft 188 kts 349°
2026-05-01 12:24 45.47009 8.77759 2510 ft 189 kts 349°
2026-05-01 12:25 45.48301 8.77405 2509 ft 190 kts 350°
2026-05-01 12:25 45.50842 8.76706 2499 ft 173 kts 349°
2026-05-01 12:25 45.51971 8.76395 2493 ft 160 kts 350°
2026-05-01 12:26 45.53044 8.76100 2387 ft 155 kts 350°
2026-05-01 12:26 45.55174 8.75515 2026 ft 156 kts 350°
2026-05-01 12:26 45.56234 8.75223 1816 ft 153 kts 350°
2026-05-01 12:27 45.57252 8.74942 1621 ft 150 kts 349°
2026-05-01 12:27 45.59234 8.74397 1227 ft 141 kts 350°
2026-05-01 12:28 45.61136 8.73869 887 ft 138 kts 349°
2026-05-01 12:28 45.62071 8.73615 765 ft 136 kts 349°
2026-05-01 12:28 45.63436 8.73249 740 ft 52 kts 349°
2026-05-01 12:29 45.63715 8.73104 742 ft 37 kts 317°
2026-05-01 12:29 45.63847 8.72846 740 ft 33 kts 305°
2026-05-01 12:29 45.63928 8.72357 740 ft 25 kts 258°
2026-05-01 12:30 45.63885 8.71850 741 ft 18 kts 237°
2026-05-01 12:30 45.63773 8.71831 741 ft 18 kts 169°
2026-05-01 12:30 45.63642 8.71865 740 ft 20 kts 171°
2026-05-01 12:31 45.63494 8.71909 740 ft 23 kts 168°
2026-05-01 12:31 45.63339 8.71939 741 ft 19 kts 197°
2026-05-01 12:31 45.63288 8.71765 740 ft 21 kts 261°
2026-05-01 12:31 45.63211 8.71673 741 ft 16 kts 171°
2026-05-01 12:32 45.63164 8.71741 741 ft 10 kts 78°
2026-05-01 12:32 45.63172 8.71798 741 ft 0 kts 79°